Time,TemperatureF,DewpointF,PressureIn,WindDirection,WindDirectionDegrees,WindSpeedMPH,WindSpeedGustMPH,Humidity,HourlyPrecipIn,Conditions,Clouds,dailyrainin,SolarRadiationWatts/m^2,SoftwareType,DateUTC
2013-01-18 00:02:00,-7.0,-14.0,-100.00,West,264,2.0,7.0,72,0.00,,,0.00,0.000000,,2013-01-18 06:02:00,
2013-01-18 00:12:00,-7.0,-14.0,-100.00,West,264,2.0,7.0,72,0.00,,,0.00,0.000000,,2013-01-18 06:12:00,
2013-01-18 00:33:00,-9.0,-14.0,-100.00,SSW,204,2.0,4.0,77,0.00,,,0.00,0.000000,,2013-01-18 06:33:00,
2013-01-18 00:43:00,-9.0,-14.0,-100.00,SSW,204,2.0,4.0,77,0.00,,,0.00,0.000000,,2013-01-18 06:43:00,
2013-01-18 00:53:00,-9.0,-14.0,-100.00,SSW,204,2.0,4.0,77,0.00,,,0.00,0.000000,,2013-01-18 06:53:00,
2013-01-18 01:02:00,-9.0,-14.0,-100.00,SSW,204,2.0,4.0,77,0.00,,,0.00,0.000000,,2013-01-18 07:02:00,
2013-01-18 01:12:00,-9.0,-14.0,-100.00,SSW,204,2.0,4.0,77,0.00,,,0.00,0.000000,,2013-01-18 07:12:00,
2013-01-18 01:33:00,-9.0,-14.0,-100.00,South,185,3.0,5.0,76,0.00,,,0.00,1.000000,,2013-01-18 07:33:00,
2013-01-18 01:42:00,-9.0,-14.0,-100.00,South,185,3.0,5.0,76,0.00,,,0.00,1.000000,,2013-01-18 07:42:00,
2013-01-18 01:52:00,-9.0,-14.0,-100.00,South,185,3.0,5.0,76,0.00,,,0.00,1.000000,,2013-01-18 07:52:00,
2013-01-18 02:02:00,-9.0,-14.0,-100.00,South,185,3.0,5.0,76,0.00,,,0.00,1.000000,,2013-01-18 08:02:00,
2013-01-18 02:12:00,-9.0,-14.0,-100.00,South,185,3.0,5.0,76,0.00,,,0.00,1.000000,,2013-01-18 08:12:00,
2013-01-18 02:33:00,-9.0,-15.0,-100.00,SSE,167,4.0,6.0,75,0.00,,,0.00,1.000000,,2013-01-18 08:33:00,
2013-01-18 02:43:00,-9.0,-15.0,-100.00,SSE,167,4.0,6.0,75,0.00,,,0.00,1.000000,,2013-01-18 08:43:00,
2013-01-18 02:53:00,-9.0,-15.0,-100.00,SSE,167,4.0,6.0,75,0.00,,,0.00,1.000000,,2013-01-18 08:53:00,
2013-01-18 03:02:00,-9.0,-15.0,-100.00,SSE,167,4.0,6.0,75,0.00,,,0.00,1.000000,,2013-01-18 09:02:00,
2013-01-18 03:12:00,-9.0,-15.0,-100.00,SSE,167,4.0,6.0,75,0.00,,,0.00,1.000000,,2013-01-18 09:12:00,
2013-01-18 03:33:00,-8.0,-14.0,-100.00,SSE,163,5.0,7.0,76,0.00,,,0.00,0.000000,,2013-01-18 09:33:00,
2013-01-18 03:43:00,-8.0,-14.0,-100.00,SSE,163,5.0,7.0,76,0.00,,,0.00,0.000000,,2013-01-18 09:43:00,
2013-01-18 03:53:00,-8.0,-14.0,-100.00,SSE,163,5.0,7.0,76,0.00,,,0.00,0.000000,,2013-01-18 09:53:00,
2013-01-18 04:02:00,-8.0,-14.0,-100.00,SSE,163,5.0,7.0,76,0.00,,,0.00,0.000000,,2013-01-18 10:02:00,
2013-01-18 04:12:00,-8.0,-14.0,-100.00,SSE,163,5.0,7.0,76,0.00,,,0.00,0.000000,,2013-01-18 10:12:00,
2013-01-18 04:33:00,-8.0,-14.0,-100.00,SSE,167,4.0,7.0,75,0.00,,,0.00,1.000000,,2013-01-18 10:33:00,
2013-01-18 04:43:00,-8.0,-14.0,-100.00,SSE,167,4.0,7.0,75,0.00,,,0.00,1.000000,,2013-01-18 10:43:00,
2013-01-18 04:53:00,-8.0,-14.0,-100.00,SSE,167,4.0,7.0,75,0.00,,,0.00,1.000000,,2013-01-18 10:53:00,
2013-01-18 05:02:00,-8.0,-14.0,-100.00,SSE,167,4.0,7.0,75,0.00,,,0.00,1.000000,,2013-01-18 11:02:00,
2013-01-18 05:12:00,-8.0,-14.0,-100.00,SSE,167,4.0,7.0,75,0.00,,,0.00,1.000000,,2013-01-18 11:12:00,
2013-01-18 05:33:00,-6.0,-11.0,-100.00,SE,145,4.0,7.0,77,0.00,,,0.00,0.000000,,2013-01-18 11:33:00,
2013-01-18 05:43:00,-6.0,-11.0,-100.00,SE,145,4.0,7.0,77,0.00,,,0.00,0.000000,,2013-01-18 11:43:00,
2013-01-18 05:53:00,-6.0,-11.0,-100.00,SE,145,4.0,7.0,77,0.00,,,0.00,0.000000,,2013-01-18 11:53:00,
2013-01-18 06:03:00,-6.0,-11.0,-100.00,SE,145,4.0,7.0,77,0.00,,,0.00,0.000000,,2013-01-18 12:03:00,
2013-01-18 06:12:00,-6.0,-11.0,-100.00,SE,145,4.0,7.0,77,0.00,,,0.00,0.000000,,2013-01-18 12:12:00,
2013-01-18 06:33:00,-4.0,-9.0,-100.00,SE,130,4.0,7.0,78,0.00,,,0.00,1.000000,,2013-01-18 12:33:00,
2013-01-18 06:43:00,-4.0,-9.0,-100.00,SE,130,4.0,7.0,78,0.00,,,0.00,1.000000,,2013-01-18 12:43:00,
2013-01-18 06:53:00,-4.0,-9.0,-100.00,SE,130,4.0,7.0,78,0.00,,,0.00,1.000000,,2013-01-18 12:53:00,
2013-01-18 07:03:00,-4.0,-9.0,-100.00,SE,130,4.0,7.0,78,0.00,,,0.00,1.000000,,2013-01-18 13:03:00,
2013-01-18 07:12:00,-4.0,-9.0,-100.00,SE,130,4.0,7.0,78,0.00,,,0.00,1.000000,,2013-01-18 13:12:00,
2013-01-18 07:33:00,-2.0,-7.0,-100.00,SE,136,5.0,7.0,80,0.00,,,0.00,0.000000,,2013-01-18 13:33:00,
2013-01-18 07:43:00,-2.0,-7.0,-100.00,SE,136,5.0,7.0,80,0.00,,,0.00,0.000000,,2013-01-18 13:43:00,
2013-01-18 07:53:00,-2.0,-7.0,-100.00,SE,136,5.0,7.0,80,0.00,,,0.00,0.000000,,2013-01-18 13:53:00,
2013-01-18 08:03:00,-2.0,-7.0,-100.00,SE,136,5.0,7.0,80,0.00,,,0.00,0.000000,,2013-01-18 14:03:00,
2013-01-18 08:12:00,-2.0,-7.0,-100.00,SE,136,5.0,7.0,80,0.00,,,0.00,0.000000,,2013-01-18 14:12:00,
2013-01-18 08:43:00,0.0,-4.0,-100.00,SE,145,5.0,9.0,81,0.00,,,0.00,2.000000,,2013-01-18 14:43:00,
2013-01-18 08:53:00,0.0,-4.0,-100.00,SE,145,5.0,9.0,81,0.00,,,0.00,2.000000,,2013-01-18 14:53:00,
2013-01-18 09:03:00,0.0,-4.0,-100.00,SE,145,5.0,9.0,81,0.00,,,0.00,2.000000,,2013-01-18 15:03:00,
2013-01-18 09:12:00,0.0,-4.0,-100.00,SE,145,5.0,9.0,81,0.00,,,0.00,2.000000,,2013-01-18 15:12:00,
2013-01-18 09:34:00,4.0,0.0,-100.00,SE,138,6.0,9.0,83,0.00,,,0.00,13.000000,,2013-01-18 15:34:00,
2013-01-18 09:43:00,4.0,0.0,-100.00,SE,138,6.0,9.0,83,0.00,,,0.00,13.000000,,2013-01-18 15:43:00,
2013-01-18 09:54:00,4.0,0.0,-100.00,SE,138,6.0,9.0,83,0.00,,,0.00,13.000000,,2013-01-18 15:54:00,
2013-01-18 10:03:00,4.0,0.0,-100.00,SE,138,6.0,9.0,83,0.00,,,0.00,13.000000,,2013-01-18 16:03:00,
2013-01-18 10:12:00,4.0,0.0,-100.00,SE,138,6.0,9.0,83,0.00,,,0.00,13.000000,,2013-01-18 16:12:00,
2013-01-18 10:13:00,8.0,4.0,-100.00,SE,128,6.0,10.0,84,0.00,,,0.00,53.000000,,2013-01-18 16:13:00,
2013-01-18 10:33:00,8.0,4.0,-100.00,SE,128,6.0,10.0,84,0.00,,,0.00,53.000000,,2013-01-18 16:33:00,
2013-01-18 10:43:00,8.0,4.0,-100.00,SE,128,6.0,10.0,84,0.00,,,0.00,53.000000,,2013-01-18 16:43:00,
2013-01-18 10:53:00,8.0,4.0,-100.00,SE,128,6.0,10.0,84,0.00,,,0.00,53.000000,,2013-01-18 16:53:00,
2013-01-18 11:03:00,8.0,4.0,-100.00,SE,128,6.0,10.0,84,0.00,,,0.00,53.000000,,2013-01-18 17:03:00,
2013-01-18 11:34:00,12.0,8.0,-100.00,SE,144,6.0,11.0,83,0.00,,,0.00,108.000000,,2013-01-18 17:34:00,
2013-01-18 11:43:00,12.0,8.0,-100.00,SE,144,6.0,11.0,83,0.00,,,0.00,108.000000,,2013-01-18 17:43:00,
2013-01-18 11:53:00,12.0,8.0,-100.00,SE,144,6.0,11.0,83,0.00,,,0.00,108.000000,,2013-01-18 17:53:00,
2013-01-18 12:03:00,12.0,8.0,-100.00,SE,144,6.0,11.0,83,0.00,,,0.00,108.000000,,2013-01-18 18:03:00,
2013-01-18 12:12:00,12.0,8.0,-100.00,SE,144,6.0,11.0,83,0.00,,,0.00,108.000000,,2013-01-18 18:12:00,
2013-01-18 12:34:00,14.0,10.0,-100.00,SE,135,6.0,11.0,84,0.00,,,0.00,117.000000,,2013-01-18 18:34:00,
2013-01-18 12:43:00,14.0,10.0,-100.00,SE,135,6.0,11.0,84,0.00,,,0.00,117.000000,,2013-01-18 18:43:00,
2013-01-18 12:53:00,14.0,10.0,-100.00,SE,135,6.0,11.0,84,0.00,,,0.00,117.000000,,2013-01-18 18:53:00,
2013-01-18 13:03:00,14.0,10.0,-100.00,SE,135,6.0,11.0,84,0.00,,,0.00,117.000000,,2013-01-18 19:03:00,
2013-01-18 13:12:00,14.0,10.0,-100.00,SE,135,6.0,11.0,84,0.00,,,0.00,117.000000,,2013-01-18 19:12:00,
2013-01-18 13:33:00,16.0,12.0,-100.00,SE,140,6.0,11.0,85,0.00,,,0.00,131.000000,,2013-01-18 19:33:00,
2013-01-18 13:43:00,16.0,12.0,-100.00,SE,140,6.0,11.0,85,0.00,,,0.00,131.000000,,2013-01-18 19:43:00,
2013-01-18 13:53:00,16.0,12.0,-100.00,SE,140,6.0,11.0,85,0.00,,,0.00,131.000000,,2013-01-18 19:53:00,
2013-01-18 14:03:00,16.0,12.0,-100.00,SE,140,6.0,11.0,85,0.00,,,0.00,131.000000,,2013-01-18 20:03:00,
2013-01-18 14:12:00,16.0,12.0,-100.00,SE,140,6.0,11.0,85,0.00,,,0.00,131.000000,,2013-01-18 20:12:00,
2013-01-18 14:13:00,16.0,12.0,-100.00,SE,132,6.0,12.0,85,0.00,,,0.00,89.000000,,2013-01-18 20:13:00,
2013-01-18 14:33:00,16.0,12.0,-100.00,SE,132,6.0,12.0,85,0.00,,,0.00,89.000000,,2013-01-18 20:33:00,
2013-01-18 14:43:00,16.0,12.0,-100.00,SE,132,6.0,12.0,85,0.00,,,0.00,89.000000,,2013-01-18 20:43:00,
2013-01-18 14:53:00,16.0,12.0,-100.00,SE,132,6.0,12.0,85,0.00,,,0.00,89.000000,,2013-01-18 20:53:00,
2013-01-18 15:03:00,16.0,12.0,-100.00,SE,132,6.0,12.0,85,0.00,,,0.00,89.000000,,2013-01-18 21:03:00,
2013-01-18 15:43:00,16.0,13.0,-100.00,ESE,120,5.0,8.0,87,0.00,,,0.00,54.000000,,2013-01-18 21:43:00,
2013-01-18 15:53:00,16.0,13.0,-100.00,ESE,120,5.0,8.0,87,0.00,,,0.00,54.000000,,2013-01-18 21:53:00,
2013-01-18 16:03:00,16.0,13.0,-100.00,ESE,120,5.0,8.0,87,0.00,,,0.00,54.000000,,2013-01-18 22:03:00,
2013-01-18 16:12:00,16.0,13.0,-100.00,ESE,120,5.0,8.0,87,0.00,,,0.00,54.000000,,2013-01-18 22:12:00,
2013-01-18 16:43:00,16.0,13.0,-100.00,ESE,122,4.0,8.0,89,0.00,,,0.00,41.000000,,2013-01-18 22:43:00,
2013-01-18 16:53:00,16.0,13.0,-100.00,ESE,122,4.0,8.0,89,0.00,,,0.00,41.000000,,2013-01-18 22:53:00,
2013-01-18 17:03:00,16.0,13.0,-100.00,ESE,122,4.0,8.0,89,0.00,,,0.00,41.000000,,2013-01-18 23:03:00,
2013-01-18 17:12:00,16.0,13.0,-100.00,ESE,122,4.0,8.0,89,0.00,,,0.00,41.000000,,2013-01-18 23:12:00,
2013-01-18 17:33:00,16.0,14.0,-100.00,ESE,114,3.0,7.0,91,0.00,,,0.00,5.000000,,2013-01-18 23:33:00,
2013-01-18 17:43:00,16.0,14.0,-100.00,ESE,114,3.0,7.0,91,0.00,,,0.00,5.000000,,2013-01-18 23:43:00,
2013-01-18 17:53:00,16.0,14.0,-100.00,ESE,114,3.0,7.0,91,0.00,,,0.00,5.000000,,2013-01-18 23:53:00,
2013-01-18 18:02:00,16.0,14.0,-100.00,ESE,114,3.0,7.0,91,0.00,,,0.00,5.000000,,2013-01-19 00:02:00,
2013-01-18 18:12:00,16.0,14.0,-100.00,ESE,114,3.0,7.0,91,0.00,,,0.00,5.000000,,2013-01-19 00:12:00,
2013-01-18 18:33:00,15.0,13.0,-100.00,ENE,57,1.0,6.0,92,0.00,,,0.00,0.000000,,2013-01-19 00:33:00,
2013-01-18 18:43:00,15.0,13.0,-100.00,ENE,57,1.0,6.0,92,0.00,,,0.00,0.000000,,2013-01-19 00:43:00,
2013-01-18 18:53:00,15.0,13.0,-100.00,ENE,57,1.0,6.0,92,0.00,,,0.00,0.000000,,2013-01-19 00:53:00,
2013-01-18 19:02:00,15.0,13.0,-100.00,ENE,57,1.0,6.0,92,0.00,,,0.00,0.000000,,2013-01-19 01:02:00,
2013-01-18 19:12:00,15.0,13.0,-100.00,ENE,57,1.0,6.0,92,0.00,,,0.00,0.000000,,2013-01-19 01:12:00,
2013-01-18 19:33:00,14.0,12.0,-100.00,NNE,30,2.0,5.0,91,0.00,,,0.00,0.000000,,2013-01-19 01:33:00,
2013-01-18 19:43:00,14.0,12.0,-100.00,NNE,30,2.0,5.0,91,0.00,,,0.00,0.000000,,2013-01-19 01:43:00,
2013-01-18 19:53:00,14.0,12.0,-100.00,NNE,30,2.0,5.0,91,0.00,,,0.00,0.000000,,2013-01-19 01:53:00,
2013-01-18 20:02:00,14.0,12.0,-100.00,NNE,30,2.0,5.0,91,0.00,,,0.00,0.000000,,2013-01-19 02:02:00,
2013-01-18 20:12:00,14.0,12.0,-100.00,NNE,30,2.0,5.0,91,0.00,,,0.00,0.000000,,2013-01-19 02:12:00,
2013-01-18 20:33:00,12.0,10.0,-100.00,ENE,60,2.0,5.0,91,0.00,,,0.00,0.000000,,2013-01-19 02:33:00,
2013-01-18 20:43:00,12.0,10.0,-100.00,ENE,60,2.0,5.0,91,0.00,,,0.00,0.000000,,2013-01-19 02:43:00,
2013-01-18 20:53:00,12.0,10.0,-100.00,ENE,60,2.0,5.0,91,0.00,,,0.00,0.000000,,2013-01-19 02:53:00,
2013-01-18 21:03:00,12.0,10.0,-100.00,ENE,60,2.0,5.0,91,0.00,,,0.00,0.000000,,2013-01-19 03:03:00,
2013-01-18 21:12:00,12.0,10.0,-100.00,ENE,60,2.0,5.0,91,0.00,,,0.00,0.000000,,2013-01-19 03:12:00,
2013-01-18 21:33:00,12.0,10.0,-100.00,ENE,68,2.0,5.0,90,0.00,,,0.00,0.000000,,2013-01-19 03:33:00,
2013-01-18 21:44:00,12.0,10.0,-100.00,ENE,68,2.0,5.0,90,0.00,,,0.00,0.000000,,2013-01-19 03:44:00,
2013-01-18 21:53:00,12.0,10.0,-100.00,ENE,68,2.0,5.0,90,0.00,,,0.00,0.000000,,2013-01-19 03:53:00,
2013-01-18 22:02:00,12.0,10.0,-100.00,ENE,68,2.0,5.0,90,0.00,,,0.00,0.000000,,2013-01-19 04:02:00,
2013-01-18 22:12:00,12.0,10.0,-100.00,ENE,68,2.0,5.0,90,0.00,,,0.00,0.000000,,2013-01-19 04:12:00,
2013-01-18 22:33:00,11.0,9.0,-100.00,ENE,70,2.0,5.0,90,0.00,,,0.00,0.000000,,2013-01-19 04:33:00,
2013-01-18 22:43:00,11.0,9.0,-100.00,ENE,70,2.0,5.0,90,0.00,,,0.00,0.000000,,2013-01-19 04:43:00,
2013-01-18 22:53:00,11.0,9.0,-100.00,ENE,70,2.0,5.0,90,0.00,,,0.00,0.000000,,2013-01-19 04:53:00,
2013-01-18 23:03:00,11.0,9.0,-100.00,ENE,70,2.0,5.0,90,0.00,,,0.00,0.000000,,2013-01-19 05:03:00,
2013-01-18 23:12:00,11.0,9.0,-100.00,ENE,70,2.0,5.0,90,0.00,,,0.00,0.000000,,2013-01-19 05:12:00,
2013-01-18 23:33:00,11.0,9.0,-100.00,NE,36,2.0,3.0,90,0.00,,,0.00,0.000000,,2013-01-19 05:33:00,
2013-01-18 23:43:00,11.0,9.0,-100.00,NE,36,2.0,3.0,90,0.00,,,0.00,0.000000,,2013-01-19 05:43:00,
2013-01-18 23:53:00,11.0,9.0,-100.00,NE,36,2.0,3.0,90,0.00,,,0.00,0.000000,,2013-01-19 05:53:00,